FENGYUN 1C DEB, 36216

Orbit data source: Space-Track

FENGYUN 1C DEB, 36216 is space debris in SSO originally from a launch on Mon, 10 May 1999 UTC launched from the Taiyaun Space Center, China (TSC). Fengyun 1C debris stems from the Chinese weather satellite Fengyun-1C, which was intentionally destroyed by a Chinese anti-satellite missile in 2007. This event dramatically increased the amount of space debris, with thousands of trackable fragments posing hazards to satellites and human spaceflight. The Fengyun 1C debris cloud has become a focal point in discussions about space sustainability and the need for international regulations to prevent the creation of new debris.

Loading next visibility...
Identifier
36216, 1999-025DUR
Orbit
SSO
Country
Flag of CNCN / PRC
Related business
Manufacturer
Unknown
Mission
Spacecraft
Bus & Motor
Unknown
Mass
Unknown
Launch date (UTC)
1999-05-10 (27 years ago)
Launch vehicle
Unknown
Launch site
Taiyaun Space Center, China (TSC)
Object type
Payload
Rocket body
Debris
Shape & HBR
Unknown shape, 0.1 m
Radar Cross Section
Small (<0.1 m²)

Expand to show TLE details & history
Last TLE update: 3 days ago

TLE from 3 days ago
0 FENGYUN 1C DEB
1 36216U 99025DUR 26143.77275185  .00000352  00000-0  18711-3 0  9992
2 36216  98.5944 164.2190 0043088 268.8252  90.7988 14.19082005666704
Epoch: 2026-05-23T18:32Z
TLE epoch observation values (Epoch: 2026-05-23T18:32:45.759Z)
Latitude
-0.00001°
Longitude
4.64389°
Altitude
831.943 km
Speed
7.437 km/s
True Right ascension
10h 56m 52s
True Declination
0° 00' 00"
Sunlit
Object was in daylight at epoch
Visualization orbit readout
Latitude
Unknown
Longitude
Unknown
Altitude
Unknown
Speed
Unknown
Apparent Right ascension
Unknown
Apparent Declination
Unknown
Sunlit
N/A
Visualization observer readout
Local Sidereal Time
16:31:17
Azimuth
Unknown
Elevation
Unknown
Doppler factor
Unknown
Orbital elements
Apogee altitude
856.653 km
Perigee altitude
794.574 km
Semi-major axis
7,203.75 km
Eccentricity
0.00431
Inclination
98.5944°
RAAN
164.219°
Arg. of periapsis
268.8252°
True anomaly
91.29246°
Mean anomaly
90.7988°
Eccentric anomaly
91.04563°
Mean motion
3.54981 °/min
Orbital period
101.41 mins
BSTAR
0.00018711
Loading maneuver chart data...
Computing Atmospheric mass density...
Loading historical data...
Loading historical data...
Loading historical data...
Loading historical data...
Loading historical data...
Loading historical data...
Loading historical data...

Documentation

Showing up to 5 results
|